FW6307 Weather Reports


time (UTC)temp
C
wind
direction
speed
KPH
gust
KPH
rain 1hr
cm
rain 24hr
cm
rain mn
cm
humidity
%
barometer
mb
20260504050731 8 182 0.0 1.6 0.00 0.00 0.00 68 1013.0
20260504050234 8 343 0.0 1.6 0.00 0.00 0.00 69 1013.0
20260504045732 8 35 1.6 3.2 0.00 0.00 0.00 69 1013.0
20260504045232 8 130 0.0 1.6 0.00 0.00 0.00 69 1013.0
20260504044731 8 147 3.2 3.2 0.00 0.00 0.00 69 1014.0
20260504044231 8 345 1.6 3.2 0.00 0.00 0.00 70 1014.0
20260504043732 8 310 0.0 3.2 0.00 0.00 0.00 69 1014.0
20260504043233 8 242 3.2 6.4 0.00 0.00 0.00 69 1014.0
20260504042731 7 141 0.0 3.2 0.00 0.00 0.00 70 1014.0
20260504042232 8 328 1.6 4.8 0.00 0.00 0.00 70 1014.0
20260504041731 8 163 1.6 3.2 0.00 0.00 0.00 70 1014.0
20260504041232 8 35 1.6 3.2 0.00 0.00 0.00 70 1014.0
20260504040731 8 15 3.2 4.8 0.00 0.00 0.00 70 1014.0
20260504040239 8 357 3.2 4.8 0.00 0.00 0.00 70 1014.0
20260504035732 8 346 3.2 3.2 0.00 0.00 0.00 70 1014.0
20260504035232 8 18 0.0 0.0 0.00 0.00 0.00 70 1014.0
20260504034732 8 0 0.0 0.0 0.00 0.00 0.00 69 1014.0
20260504034231 8 9 0.0 0.0 0.00 0.00 0.00 69 1014.0
20260504033731 8 314 0.0 0.0 0.00 0.00 0.00 69 1014.0
20260504033231 8 348 0.0 3.2 0.00 0.00 0.00 68 1014.0
20260504032733 9 309 0.0 1.6 0.00 0.00 0.00 68 1014.0
20260504032231 9 299 0.0 0.0 0.00 0.00 0.00 67 1013.0
20260504031731 10 0 0.0 0.0 0.00 0.00 0.00 65 1013.0
20260504031232 10 126 0.0 1.6 0.00 0.00 0.00 64 1014.0
20260504030731 10 324 0.0 0.0 0.00 0.00 0.00 64 1014.0
20260504030231 10 275 3.2 3.2 0.00 0.00 0.00 62 1014.0
20260504025731 10 27 1.6 3.2 0.00 0.00 0.00 59 1014.0
20260504025233 11 325 3.2 3.2 0.00 0.00 0.00 57 1014.0
20260504024731 11 228 0.0 3.2 0.00 0.00 0.00 53 1014.0
20260504024232 11 173 0.0 3.2 0.00 0.00 0.00 54 1014.0
20260504023732 11 246 0.0 1.6 0.00 0.00 0.00 56 1014.0
20260504023231 11 164 1.6 3.2 0.00 0.00 0.00 52 1014.0
20260504022732 11 230 0.0 0.0 0.00 0.00 0.00 53 1014.0
20260504022234 11 298 0.0 1.6 0.00 0.00 0.00 52 1014.0
20260504021732 11 0 0.0 0.0 0.00 0.00 0.00 51 1014.0
20260504021232 12 215 3.2 4.8 0.00 0.00 0.00 51 1014.0
20260504020731 12 199 3.2 6.4 0.00 0.00 0.00 51 1014.0
20260504020232 12 183 3.2 4.8 0.00 0.00 0.00 50 1014.0
20260504015731 12 0 0.0 0.0 0.00 0.00 0.00 49 1014.0
20260504015231 12 199 3.2 4.8 0.00 0.00 0.00 48 1014.0
20260504014732 12 204 0.0 1.6 0.00 0.00 0.00 48 1014.0
20260504014231 12 221 3.2 4.8 0.00 0.00 0.00 48 1014.0
20260504013732 12 232 0.0 1.6 0.00 0.00 0.00 48 1014.0
20260504013232 12 320 3.2 4.8 0.00 0.00 0.00 47 1014.0
20260504012732 13 303 1.6 3.2 0.00 0.00 0.00 47 1014.0
20260504012232 13 313 4.8 6.4 0.00 0.00 0.00 45 1013.0
20260504011732 13 298 3.2 4.8 0.00 0.00 0.00 45 1013.0
20260504011232 13 279 3.2 4.8 0.00 0.00 0.00 43 1013.0
20260504010731 13 273 1.6 6.4 0.00 0.00 0.00 43 1013.0
20260504010232 13 261 6.4 11.3 0.00 0.00 0.00 42 1013.0
20260504005731 13 245 1.6 4.8 0.00 0.00 0.00 42 1013.0
20260504005232 13 233 3.2 6.4 0.00 0.00 0.00 42 1013.0
20260504004731 13 263 0.0 3.2 0.00 0.00 0.00 42 1013.0
20260504004231 13 245 3.2 8.0 0.00 0.00 0.00 41 1013.0
20260504003731 13 228 1.6 3.2 0.00 0.00 0.00 41 1013.0
20260504003231 13 240 3.2 6.4 0.00 0.00 0.00 40 1013.0
20260504002731 14 244 6.4 11.3 0.00 0.00 0.00 39 1013.0
20260504002231 14 268 8.0 11.3 0.00 0.00 0.00 39 1013.0
20260504001732 14 251 4.8 6.4 0.00 0.00 0.00 39 1013.0
20260504001231 14 255 8.0 14.5 0.00 0.00 0.00 38 1013.0
20260504000732 14 280 9.7 14.5 0.00 0.00 0.00 38 1013.0
20260504000233 14 280 9.7 14.5 0.00 0.00 0.00 38 1013.0
20260503235731 14 254 9.7 12.9 0.00 0.00 0.00 37 1013.0
20260503235232 14 284 12.9 20.9 0.00 0.00 0.00 37 1013.0
20260503234731 15 283 12.9 22.5 0.00 0.00 0.00 37 1013.0
20260503234231 15 268 9.7 14.5 0.00 0.00 0.00 37 1013.0
20260503233732 15 259 14.5 20.9 0.00 0.00 0.00 36 1013.0
20260503233232 15 275 11.3 17.7 0.00 0.00 0.00 36 1013.0
20260503232731 15 239 8.0 12.9 0.00 0.00 0.00 36 1013.0
20260503232231 15 256 9.7 17.7 0.00 0.00 0.00 36 1013.0
20260503231731 15 267 16.1 20.9 0.00 0.00 0.00 36 1013.0
20260503231231 15 258 12.9 20.9 0.00 0.00 0.00 36 1013.0
20260503230732 15 260 8.0 14.5 0.00 0.00 0.00 36 1013.0
20260503225744 15 250 12.9 16.1 0.00 0.00 0.00 36 1013.0
20260503225231 15 260 11.3 17.7 0.00 0.00 0.00 36 1013.0
20260503224731 15 271 12.9 22.5 0.00 0.00 0.00 35 1013.0
20260503224235 15 259 11.3 19.3 0.00 0.00 0.00 35 1013.0
20260503223731 15 250 11.3 22.5 0.00 0.00 0.00 35 1013.0
20260503223231 15 262 14.5 17.7 0.00 0.00 0.00 35 1013.0
20260503222731 15 257 11.3 19.3 0.00 0.00 0.00 35 1013.0
20260503222231 15 263 11.3 16.1 0.00 0.00 0.00 35 1013.0
20260503221731 15 255 14.5 20.9 0.00 0.00 0.00 35 1013.0
20260503221231 15 266 14.5 24.1 0.00 0.00 0.00 35 1013.0
20260503220732 15 280 17.7 30.6 0.00 0.00 0.00 35 1013.0
20260503220232 15 244 14.5 20.9 0.00 0.00 0.00 35 1013.0
20260503215731 15 275 8.0 14.5 0.00 0.00 0.00 36 1013.0
20260503215231 15 264 11.3 14.5 0.00 0.00 0.00 36 1013.0
20260503214733 15 242 14.5 20.9 0.00 0.00 0.00 36 1013.0
20260503214232 15 254 16.1 25.7 0.00 0.00 0.00 36 1013.0
20260503213731 15 265 14.5 19.3 0.00 0.00 0.00 36 1013.0
20260503213232 15 237 14.5 20.9 0.00 0.00 0.00 36 1013.0
20260503212731 15 284 16.1 22.5 0.00 0.00 0.00 36 1013.0
20260503212231 15 274 14.5 20.9 0.00 0.00 0.00 36 1013.0
20260503211731 15 278 11.3 19.3 0.00 0.00 0.00 35 1013.0
20260503211231 15 271 11.3 19.3 0.00 0.00 0.00 36 1013.0
20260503210731 15 277 17.7 29.0 0.00 0.00 0.00 35 1013.0
20260503210233 15 268 20.9 29.0 0.00 0.00 0.00 35 1013.0
20260503205733 15 263 9.7 17.7 0.00 0.00 0.00 36 1013.0
20260503205231 15 252 12.9 17.7 0.00 0.00 0.00 35 1013.0
20260503204732 15 284 8.0 16.1 0.00 0.00 0.00 36 1013.0
20260503204231 15 261 12.9 17.7 0.00 0.00 0.00 36 1014.0
20260503203731 15 258 6.4 14.5 0.00 0.00 0.00 37 1014.0
20260503203231 15 292 11.3 14.5 0.00 0.00 0.00 36 1014.0
20260503202732 15 284 6.4 12.9 0.00 0.00 0.00 36 1014.0
20260503202231 14 265 11.3 19.3 0.00 0.00 0.00 36 1014.0
20260503201731 14 265 17.7 27.4 0.00 0.00 0.00 35 1014.0
20260503201231 14 247 9.7 16.1 0.00 0.00 0.00 37 1014.0
20260503200731 15 272 14.5 19.3 0.00 0.00 0.00 37 1014.0
20260503200231 15 267 16.1 20.9 0.00 0.00 0.00 36 1014.0
20260503195731 14 264 9.7 16.1 0.00 0.00 0.00 37 1014.0
20260503195231 14 268 12.9 20.9 0.00 0.00 0.00 37 1014.0
20260503194731 14 273 12.9 19.3 0.00 0.00 0.00 37 1014.0
20260503194232 14 260 8.0 12.9 0.00 0.00 0.00 37 1014.0
20260503193731 13 285 11.3 17.7 0.00 0.00 0.00 38 1014.0
20260503193231 14 289 11.3 19.3 0.00 0.00 0.00 37 1014.0
20260503192731 14 285 17.7 24.1 0.00 0.00 0.00 36 1014.0
20260503192231 13 257 11.3 19.3 0.00 0.00 0.00 37 1015.0
20260503191732 14 267 9.7 16.1 0.00 0.00 0.00 37 1015.0
20260503191232 13 324 9.7 17.7 0.00 0.00 0.00 36 1015.0
20260503190731 14 296 11.3 16.1 0.00 0.00 0.00 38 1015.0
20260503190231 14 277 12.9 20.9 0.00 0.00 0.00 37 1015.0
20260503185731 14 315 4.8 9.7 0.00 0.00 0.00 37 1015.0
20260503185231 13 265 11.3 14.5 0.00 0.00 0.00 36 1015.0
20260503184732 13 287 11.3 17.7 0.00 0.00 0.00 37 1015.0
20260503184231 13 251 14.5 30.6 0.00 0.00 0.00 38 1015.0
20260503183732 13 248 9.7 14.5 0.00 0.00 0.00 39 1015.0
20260503183232 13 329 14.5 24.1 0.00 0.00 0.00 37 1015.0
20260503182731 13 321 11.3 16.1 0.00 0.00 0.00 38 1015.0
20260503182231 13 302 14.5 19.3 0.00 0.00 0.00 38 1015.0
20260503181732 13 284 14.5 19.3 0.00 0.00 0.00 39 1015.0
20260503181234 13 326 8.0 12.9 0.00 0.00 0.00 38 1015.0
20260503180731 13 333 11.3 19.3 0.00 0.00 0.00 38 1015.0
20260503180231 12 294 12.9 20.9 0.00 0.00 0.00 40 1015.0
20260503175731 12 277 16.1 22.5 0.00 0.00 0.00 40 1016.0
20260503175231 12 225 9.7 16.1 0.00 0.00 0.00 39 1016.0
20260503174732 13 267 14.5 22.5 0.00 0.00 0.00 39 1016.0
20260503174231 12 307 9.7 16.1 0.00 0.00 0.00 40 1016.0
20260503173732 12 257 8.0 14.5 0.00 0.00 0.00 40 1016.0
20260503173231 12 259 9.7 14.5 0.00 0.00 0.00 39 1016.0
20260503172731 13 279 6.4 12.9 0.00 0.00 0.00 38 1016.0
20260503172231 12 282 14.5 20.9 0.00 0.00 0.00 38 1016.0
20260503171731 12 244 9.7 16.1 0.00 0.00 0.00 38 1016.0
20260503171231 12 245 9.7 14.5 0.00 0.00 0.00 37 1016.0
20260503170731 12 248 9.7 12.9 0.00 0.00 0.00 39 1016.0
20260503170231 12 256 17.7 27.4 0.00 0.00 0.00 39 1016.0
20260503150731 10 266 6.4 12.9 0.00 0.00 0.00 43 1017.0
20260503150231 9 249 12.9 19.3 0.00 0.00 0.00 44 1017.0
20260503140232 7 303 11.3 16.1 0.00 0.00 0.00 58 1017.0
20260503131231 6 284 6.4 9.7 0.00 0.00 0.00 64 1018.0
20260503130731 6 273 8.0 11.3 0.00 0.00 0.00 65 1018.0
20260503130232 5 258 9.7 14.5 0.00 0.00 0.00 66 1018.0
20260503110731 2 297 6.4 9.7 0.00 0.00 0.00 84 1017.0
20260503110231 2 221 0.0 3.2 0.00 0.00 0.00 86 1017.0
20260503100231 2 244 3.2 4.8 0.00 0.00 0.00 88 1017.0
20260503090232 2 256 1.6 3.2 0.00 0.00 0.00 89 1017.0
20260503081232 2 182 1.6 1.6 0.00 0.00 0.00 84 1017.0
20260503080731 3 196 1.6 3.2 0.00 0.00 0.00 82 1017.0
20260503080231 3 261 1.6 1.6 0.00 0.00 0.00 79 1017.0
20260503072731 3 267 6.4 9.7 0.00 0.00 0.00 76 1016.0
20260503072231 3 288 4.8 6.4 0.00 0.00 0.00 76 1016.0
20260503071731 3 262 6.4 8.0 0.00 0.00 0.00 77 1016.0
20260503071231 3 281 4.8 6.4 0.00 0.00 0.00 79 1016.0
20260503070302 3 307 4.8 6.4 0.00 0.00 0.00 79 1016.0
20260503060231 2 0 0.0 0.0 0.00 0.00 0.00 87 1017.0
20260503054732 2 25 0.0 0.0 0.00 0.00 0.00 88 1017.0
20260503054232 2 37 1.6 3.2 0.00 0.00 0.00 88 1017.0
20260503053732 2 324 3.2 3.2 0.00 0.00 0.00 87 1017.0
20260503053231 2 264 0.0 0.0 0.00 0.00 0.00 87 1017.0